Wetterdaten: aktuell Dienstag, 25.06.2019 05:48
Datum Zeit Temp. 2m Temp. 5cm Temp. Innen Feuchte 2m Feuchte Inne Luftdruck Regen Wind Richtung Richtung Taupunkt Windchill Windben
25.06.2019 05:48 16,0 C 16,7 C 24,6 C 82 % 66 % 1020,8 hPa 0,0 l/m 0,0 km/h (0 Bft) O-NO 67 12,9 C 16,0 C 0,0 km/h (0 Bft)
25.06.2019 05:46 16,0 C 16,7 C 24,6 C 82 % 66 % 1020,8 hPa 0,0 l/m 0,0 km/h (0 Bft) O-NO 67 12,9 C 16,0 C 0,0 km/h (0 Bft)
25.06.2019 05:44 16,0 C 16,7 C 24,6 C 82 % 66 % 1020,8 hPa 0,0 l/m 0,0 km/h (0 Bft) O-NO 67 12,9 C 16,0 C 0,0 km/h (0 Bft)
25.06.2019 05:42 16,0 C 16,6 C 24,6 C 82 % 66 % 1020,8 hPa 0,0 l/m 0,0 km/h (0 Bft) O-NO 67 12,9 C 16,0 C 0,0 km/h (0 Bft)
25.06.2019 05:40 16,0 C 16,6 C 24,6 C 82 % 66 % 1020,8 hPa 0,0 l/m 0,0 km/h (0 Bft) O-NO 67 12,9 C 16,0 C 0,0 km/h (0 Bft)
25.06.2019 05:38 16,0 C 16,5 C 24,6 C 82 % 66 % 1020,9 hPa 0,0 l/m 0,0 km/h (0 Bft) O-NO 67 12,9 C 16,0 C 0,0 km/h (0 Bft)
25.06.2019 05:36 16,0 C 16,6 C 24,6 C 82 % 66 % 1020,9 hPa 0,0 l/m 0,0 km/h (0 Bft) O-NO 67 12,9 C 16,0 C 0,0 km/h (0 Bft)
25.06.2019 05:34 16,0 C 16,5 C 24,6 C 82 % 66 % 1020,9 hPa 0,0 l/m 0,0 km/h (0 Bft) O-NO 67 12,9 C 16,0 C 0,0 km/h (0 Bft)
25.06.2019 05:32 16,0 C 16,5 C 24,6 C 82 % 66 % 1020,9 hPa 0,0 l/m 0,0 km/h (0 Bft) O-NO 67 12,9 C 16,0 C 0,0 km/h (0 Bft)
25.06.2019 05:30 16,0 C 16,5 C 24,6 C 82 % 66 % 1020,9 hPa 0,0 l/m 0,2 km/h (0 Bft) O-NO 67 12,9 C 16,0 C 0,0 km/h (0 Bft)
25.06.2019 05:28 16,0 C 16,4 C 24,6 C 82 % 66 % 1020,9 hPa 0,0 l/m 0,2 km/h (0 Bft) O-NO 67 12,9 C 16,0 C 0,0 km/h (0 Bft)
25.06.2019 05:26 16,0 C 16,4 C 24,6 C 82 % 66 % 1020,9 hPa 0,0 l/m 0,5 km/h (0 Bft) O-NO 67 12,9 C 16,0 C 0,0 km/h (0 Bft)
25.06.2019 05:24 16,0 C 16,4 C 24,6 C 82 % 66 % 1020,9 hPa 0,0 l/m 0,5 km/h (0 Bft) O-NO 67 12,9 C 16,0 C 0,0 km/h (0 Bft)
25.06.2019 05:22 16,0 C 16,4 C 24,6 C 82 % 66 % 1020,9 hPa 0,0 l/m 0,5 km/h (0 Bft) O-NO 67 12,9 C 16,0 C 0,0 km/h (0 Bft)
25.06.2019 05:20 16,0 C 16,4 C 24,6 C 82 % 66 % 1020,9 hPa 0,0 l/m 0,5 km/h (0 Bft) O-NO 67 12,9 C 16,0 C 2,4 km/h (1 Bft)
25.06.2019 05:18 16,0 C 16,4 C 24,6 C 82 % 66 % 1021,0 hPa 0,0 l/m 0,5 km/h (0 Bft) O-NO 67 12,9 C 16,0 C 0,0 km/h (0 Bft)
25.06.2019 05:16 16,0 C 16,3 C 24,6 C 82 % 66 % 1021,0 hPa 0,0 l/m 1,0 km/h (0 Bft) O-NO 67 12,9 C 16,0 C 2,4 km/h (1 Bft)
25.06.2019 05:14 16,0 C 16,3 C 24,6 C 82 % 66 % 1021,0 hPa 0,0 l/m 1,7 km/h (1 Bft) O-NO 67 12,9 C 16,0 C 0,0 km/h (0 Bft)
25.06.2019 05:12 16,0 C 16,4 C 24,6 C 82 % 66 % 1021,0 hPa 0,0 l/m 2,7 km/h (1 Bft) O-NO 67 12,9 C 16,0 C 0,0 km/h (0 Bft)
25.06.2019 05:10 15,9 C 16,4 C 24,6 C 83 % 66 % 1021,0 hPa 0,0 l/m 2,9 km/h (1 Bft) O-NO 67 13,0 C 15,9 C 0,0 km/h (0 Bft)
25.06.2019 05:08 15,9 C 16,5 C 24,6 C 83 % 66 % 1021,0 hPa 0,0 l/m 2,9 km/h (1 Bft) O-NO 67 13,0 C 15,9 C 0,0 km/h (0 Bft)
25.06.2019 05:06 15,9 C 16,5 C 24,6 C 83 % 66 % 1021,0 hPa 0,0 l/m 2,4 km/h (1 Bft) NO 45 13,0 C 15,9 C 4,8 km/h (1 Bft)
25.06.2019 05:04 16,0 C 16,4 C 24,6 C 82 % 66 % 1021,0 hPa 0,0 l/m 1,7 km/h (1 Bft) NO 45 12,9 C 16,0 C 5,1 km/h (1 Bft)
25.06.2019 05:02 16,0 C 16,4 C 24,7 C 82 % 66 % 1021,0 hPa 0,0 l/m 1,2 km/h (1 Bft) N-NO 22 12,9 C 16,0 C 4,8 km/h (1 Bft)
25.06.2019 04:59 16,0 C 16,4 C 24,6 C 82 % 66 % 1021,0 hPa 0,0 l/m 1,2 km/h (1 Bft) NO 45 12,9 C 16,0 C 2,7 km/h (1 Bft)
25.06.2019 04:58 16,0 C 16,5 C 24,6 C 82 % 66 % 1020,9 hPa 0,0 l/m 1,9 km/h (1 Bft) NO 45 12,9 C 16,0 C 0,0 km/h (0 Bft)
25.06.2019 04:56 16,0 C 16,5 C 24,7 C 82 % 66 % 1020,9 hPa 0,0 l/m 2,7 km/h (1 Bft) NO 45 12,9 C 16,0 C 0,0 km/h (0 Bft)
25.06.2019 04:54 16,0 C 16,5 C 24,6 C 82 % 66 % 1020,9 hPa 0,0 l/m 3,1 km/h (1 Bft) NO 45 12,9 C 16,0 C 0,0 km/h (0 Bft)
25.06.2019 04:52 16,0 C 16,5 C 24,6 C 82 % 66 % 1020,9 hPa 0,0 l/m 3,1 km/h (1 Bft) NO 45 12,9 C 16,0 C 3,4 km/h (1 Bft)
25.06.2019 04:50 16,0 C 16,5 C 24,6 C 82 % 66 % 1020,9 hPa 0,0 l/m 3,1 km/h (1 Bft) NO 45 12,9 C 16,0 C 4,1 km/h (1 Bft)
25.06.2019 04:48 16,0 C 16,5 C 24,6 C 82 % 67 % 1020,9 hPa 0,0 l/m 3,1 km/h (1 Bft) NO 45 12,9 C 16,0 C 5,1 km/h (1 Bft)
25.06.2019 04:46 16,0 C 16,5 C 24,6 C 82 % 67 % 1020,9 hPa 0,0 l/m 3,4 km/h (1 Bft) NO 45 12,9 C 16,0 C 3,6 km/h (1 Bft)
25.06.2019 04:44 16,1 C 16,5 C 24,6 C 82 % 67 % 1020,9 hPa 0,0 l/m 2,9 km/h (1 Bft) NO 45 13,0 C 16,1 C 3,1 km/h (1 Bft)
25.06.2019 04:42 16,1 C 16,6 C 24,7 C 82 % 67 % 1020,9 hPa 0,0 l/m 2,7 km/h (1 Bft) NO 45 13,0 C 16,1 C 3,6 km/h (1 Bft)
25.06.2019 04:40 16,2 C 16,6 C 24,7 C 82 % 67 % 1020,9 hPa 0,0 l/m 2,4 km/h (1 Bft) NO 45 13,1 C 16,2 C 3,6 km/h (1 Bft)
25.06.2019 04:38 16,2 C 16,6 C 24,7 C 82 % 67 % 1020,9 hPa 0,0 l/m 2,2 km/h (1 Bft) NO 45 13,1 C 16,2 C 4,3 km/h (1 Bft)
25.06.2019 04:36 16,2 C 16,5 C 24,6 C 82 % 67 % 1020,9 hPa 0,0 l/m 1,7 km/h (1 Bft) NO 45 13,1 C 16,2 C 4,6 km/h (1 Bft)
25.06.2019 04:34 16,2 C 16,5 C 24,7 C 82 % 67 % 1020,9 hPa 0,0 l/m 1,0 km/h (0 Bft) O-NO 67 13,1 C 16,2 C 0,0 km/h (0 Bft)
25.06.2019 04:32 16,2 C 16,5 C 24,7 C 82 % 67 % 1020,9 hPa 0,0 l/m 1,0 km/h (0 Bft) O-NO 67 13,1 C 16,2 C 0,0 km/h (0 Bft)
25.06.2019 04:30 16,2 C 16,6 C 24,7 C 82 % 67 % 1020,9 hPa 0,0 l/m 1,2 km/h (1 Bft) O-NO 67 13,1 C 16,2 C 2,4 km/h (1 Bft)
25.06.2019 04:28 16,2 C 16,6 C 24,7 C 82 % 67 % 1020,9 hPa 0,0 l/m 1,2 km/h (1 Bft) NO 45 13,1 C 16,2 C 3,1 km/h (1 Bft)
25.06.2019 04:26 16,2 C 16,6 C 24,7 C 82 % 67 % 1020,9 hPa 0,0 l/m 1,4 km/h (1 Bft) O-NO 67 13,1 C 16,2 C 2,7 km/h (1 Bft)
25.06.2019 04:24 16,2 C 16,6 C 24,7 C 82 % 67 % 1020,9 hPa 0,0 l/m 1,7 km/h (1 Bft) O-NO 67 13,1 C 16,2 C 0,0 km/h (0 Bft)
25.06.2019 04:22 16,2 C 16,7 C 24,7 C 82 % 67 % 1020,9 hPa 0,0 l/m 1,9 km/h (1 Bft) O-NO 67 13,1 C 16,2 C 0,0 km/h (0 Bft)
25.06.2019 04:20 16,2 C 16,7 C 24,7 C 82 % 67 % 1020,9 hPa 0,0 l/m 1,9 km/h (1 Bft) O-NO 67 13,1 C 16,2 C 3,4 km/h (1 Bft)
25.06.2019 04:18 16,2 C 16,7 C 24,7 C 82 % 67 % 1020,9 hPa 0,0 l/m 2,2 km/h (1 Bft) O-NO 67 13,1 C 16,2 C 2,7 km/h (1 Bft)
25.06.2019 04:16 16,3 C 16,7 C 24,7 C 82 % 67 % 1020,9 hPa 0,0 l/m 1,7 km/h (1 Bft) N-NO 22 13,2 C 16,3 C 4,6 km/h (1 Bft)
25.06.2019 04:14 16,3 C 16,7 C 24,7 C 82 % 67 % 1020,9 hPa 0,0 l/m 1,2 km/h (1 Bft) O-SO 112 13,2 C 16,3 C 3,1 km/h (1 Bft)
25.06.2019 04:12 16,3 C 16,7 C 24,7 C 82 % 67 % 1020,9 hPa 0,0 l/m 0,7 km/h (0 Bft) NO 45 13,2 C 16,3 C 2,7 km/h (1 Bft)
25.06.2019 04:10 16,3 C 16,7 C 24,7 C 82 % 67 % 1020,9 hPa 0,0 l/m 0,5 km/h (0 Bft) NO 45 13,2 C 16,3 C 0,0 km/h (0 Bft)
25.06.2019 04:08 16,3 C 16,7 C 24,7 C 82 % 67 % 1020,9 hPa 0,0 l/m 0,7 km/h (0 Bft) NO 45 13,2 C 16,3 C 2,7 km/h (1 Bft)
25.06.2019 04:06 16,4 C 16,7 C 24,7 C 82 % 67 % 1020,9 hPa 0,0 l/m 1,2 km/h (1 Bft) NO 45 13,3 C 16,4 C 2,4 km/h (1 Bft)
25.06.2019 04:04 16,4 C 16,7 C 24,7 C 82 % 67 % 1020,9 hPa 0,0 l/m 1,2 km/h (1 Bft) NO 45 13,3 C 16,4 C 0,0 km/h (0 Bft)
25.06.2019 04:02 16,4 C 16,7 C 24,7 C 82 % 67 % 1020,9 hPa 0,0 l/m 1,4 km/h (1 Bft) NO 45 13,3 C 16,4 C 0,0 km/h (0 Bft)
25.06.2019 04:00 16,4 C 16,8 C 24,7 C 82 % 67 % 1020,9 hPa 0,0 l/m 1,7 km/h (1 Bft) NO 45 13,3 C 16,4 C 0,0 km/h (0 Bft)
25.06.2019 03:58 16,4 C 16,8 C 24,7 C 82 % 67 % 1020,9 hPa 0,0 l/m 1,4 km/h (1 Bft) NO 45 13,3 C 16,4 C 3,4 km/h (1 Bft)
25.06.2019 03:56 16,4 C 16,7 C 24,7 C 82 % 67 % 1020,9 hPa 0,0 l/m 1,2 km/h (1 Bft) NO 45 13,3 C 16,4 C 3,6 km/h (1 Bft)
25.06.2019 03:54 16,5 C 16,7 C 24,7 C 82 % 67 % 1020,9 hPa 0,0 l/m 0,7 km/h (0 Bft) NO 45 13,4 C 16,5 C 2,9 km/h (1 Bft)
25.06.2019 03:52 16,5 C 16,7 C 24,7 C 82 % 67 % 1020,9 hPa 0,0 l/m 1,0 km/h (0 Bft) NO 45 13,4 C 16,5 C 0,0 km/h (0 Bft)
25.06.2019 03:50 16,5 C 16,8 C 24,7 C 82 % 67 % 1020,9 hPa 0,0 l/m 1,4 km/h (1 Bft) NO 45 13,4 C 16,5 C 2,7 km/h (1 Bft)
25.06.2019 03:48 16,5 C 16,8 C 24,7 C 82 % 67 % 1020,9 hPa 0,0 l/m 1,7 km/h (1 Bft) NO 45 13,4 C 16,5 C 0,0 km/h (0 Bft)
25.06.2019 03:46 16,5 C 16,9 C 24,7 C 82 % 67 % 1020,9 hPa 0,0 l/m 2,4 km/h (1 Bft) NO 45 13,4 C 16,5 C 2,7 km/h (1 Bft)
25.06.2019 03:44 16,5 C 16,9 C 24,7 C 82 % 67 % 1020,9 hPa 0,0 l/m 2,7 km/h (1 Bft) NO 45 13,4 C 16,5 C 0,0 km/h (0 Bft)
25.06.2019 03:42 16,5 C 16,9 C 24,7 C 82 % 67 % 1020,9 hPa 0,0 l/m 3,4 km/h (1 Bft) NO 45 13,4 C 16,5 C 2,9 km/h (1 Bft)
25.06.2019 03:40 16,5 C 16,9 C 24,7 C 82 % 67 % 1020,9 hPa 0,0 l/m 3,6 km/h (1 Bft) NO 45 13,4 C 16,5 C 2,9 km/h (1 Bft)
25.06.2019 03:38 16,5 C 17,0 C 24,7 C 82 % 67 % 1021,2 hPa 0,0 l/m 3,9 km/h (1 Bft) NO 45 13,4 C 16,5 C 3,4 km/h (1 Bft)
25.06.2019 03:36 16,5 C 16,9 C 24,7 C 82 % 67 % 1021,2 hPa 0,0 l/m 3,6 km/h (1 Bft) NO 45 13,4 C 16,5 C 3,4 km/h (1 Bft)
25.06.2019 03:34 16,5 C 16,9 C 24,7 C 82 % 67 % 1021,2 hPa 0,0 l/m 3,9 km/h (1 Bft) N-NO 22 13,4 C 16,5 C 4,3 km/h (1 Bft)
25.06.2019 03:32 16,5 C 16,9 C 24,7 C 82 % 67 % 1021,2 hPa 0,0 l/m 3,9 km/h (1 Bft) N-NO 22 13,4 C 16,5 C 5,1 km/h (1 Bft)
25.06.2019 03:30 16,5 C 17,0 C 24,7 C 82 % 67 % 1021,2 hPa 0,0 l/m 3,9 km/h (1 Bft) N-NO 22 13,4 C 16,5 C 4,6 km/h (1 Bft)
25.06.2019 03:28 16,5 C 17,0 C 24,7 C 82 % 67 % 1021,2 hPa 0,0 l/m 3,9 km/h (1 Bft) N-NO 22 13,4 C 16,5 C 3,9 km/h (1 Bft)
25.06.2019 03:26 16,5 C 17,0 C 24,7 C 82 % 67 % 1021,2 hPa 0,0 l/m 4,1 km/h (1 Bft) NO 45 13,4 C 16,5 C 3,6 km/h (1 Bft)
25.06.2019 03:24 16,5 C 17,0 C 24,7 C 82 % 67 % 1021,2 hPa 0,0 l/m 4,3 km/h (1 Bft) N-NO 22 13,4 C 16,5 C 4,3 km/h (1 Bft)
25.06.2019 03:22 16,5 C 17,0 C 24,7 C 81 % 67 % 1021,2 hPa 0,0 l/m 4,6 km/h (1 Bft) NO 45 13,2 C 16,5 C 4,3 km/h (1 Bft)
25.06.2019 03:20 16,5 C 17,0 C 24,7 C 81 % 67 % 1021,2 hPa 0,0 l/m 4,8 km/h (1 Bft) NO 45 13,2 C 16,5 C 4,6 km/h (1 Bft)
25.06.2019 03:18 16,5 C 17,0 C 24,7 C 81 % 67 % 1021,1 hPa 0,0 l/m 5,1 km/h (1 Bft) NO 45 13,2 C 16,5 C 5,1 km/h (1 Bft)
25.06.2019 03:16 16,5 C 17,1 C 24,7 C 81 % 67 % 1021,1 hPa 0,0 l/m 5,3 km/h (1 Bft) NO 45 13,2 C 16,5 C 4,8 km/h (1 Bft)
25.06.2019 03:14 16,5 C 17,1 C 24,7 C 81 % 67 % 1021,1 hPa 0,0 l/m 5,3 km/h (1 Bft) NO 45 13,2 C 16,5 C 5,6 km/h (1 Bft)
25.06.2019 03:12 16,5 C 17,0 C 24,7 C 81 % 67 % 1021,1 hPa 0,0 l/m 5,3 km/h (1 Bft) NO 45 13,2 C 16,5 C 4,8 km/h (1 Bft)
25.06.2019 03:10 16,5 C 17,1 C 24,7 C 81 % 67 % 1021,1 hPa 0,0 l/m 5,3 km/h (1 Bft) NO 45 13,2 C 16,5 C 5,6 km/h (1 Bft)
25.06.2019 03:08 16,5 C 17,1 C 24,7 C 81 % 67 % 1021,1 hPa 0,0 l/m 5,3 km/h (1 Bft) NO 45 13,2 C 16,5 C 6,0 km/h (2 Bft)
25.06.2019 03:06 16,5 C 17,1 C 24,7 C 81 % 67 % 1021,1 hPa 0,0 l/m 5,1 km/h (1 Bft) NO 45 13,2 C 16,5 C 5,8 km/h (2 Bft)
25.06.2019 03:04 16,6 C 17,2 C 24,7 C 81 % 67 % 1021,1 hPa 0,0 l/m 5,1 km/h (1 Bft) NO 45 13,3 C 16,6 C 5,3 km/h (1 Bft)
25.06.2019 03:02 16,6 C 17,2 C 24,7 C 81 % 67 % 1021,1 hPa 0,0 l/m 5,1 km/h (1 Bft) NO 45 13,3 C 16,6 C 5,3 km/h (1 Bft)
25.06.2019 03:00 16,6 C 17,2 C 24,7 C 81 % 67 % 1021,1 hPa 0,0 l/m 4,8 km/h (1 Bft) NO 45 13,3 C 16,6 C 6,3 km/h (2 Bft)
25.06.2019 02:58 16,6 C 17,2 C 24,7 C 81 % 67 % 1021,1 hPa 0,0 l/m 4,8 km/h (1 Bft) NO 45 13,3 C 16,6 C 4,6 km/h (1 Bft)
25.06.2019 02:56 16,7 C 17,2 C 24,7 C 81 % 67 % 1021,1 hPa 0,0 l/m 4,3 km/h (1 Bft) N-NO 22 13,4 C 16,7 C 5,3 km/h (1 Bft)
25.06.2019 02:54 16,7 C 17,2 C 24,7 C 81 % 67 % 1021,1 hPa 0,0 l/m 3,4 km/h (1 Bft) NO 45 13,4 C 16,7 C 5,1 km/h (1 Bft)
25.06.2019 02:52 16,8 C 17,2 C 24,7 C 81 % 67 % 1021,1 hPa 0,0 l/m 2,7 km/h (1 Bft) NO 45 13,5 C 16,8 C 5,3 km/h (1 Bft)
25.06.2019 02:50 16,8 C 17,2 C 24,7 C 81 % 67 % 1021,1 hPa 0,0 l/m 1,9 km/h (1 Bft) NO 45 13,5 C 16,8 C 4,6 km/h (1 Bft)
25.06.2019 02:48 16,8 C 17,1 C 24,7 C 81 % 67 % 1021,1 hPa 0,0 l/m 1,7 km/h (1 Bft) NO 45 13,5 C 16,8 C 4,8 km/h (1 Bft)
25.06.2019 02:46 16,8 C 17,1 C 24,8 C 81 % 67 % 1021,1 hPa 0,0 l/m 1,2 km/h (1 Bft) NO 45 13,5 C 16,8 C 2,7 km/h (1 Bft)
25.06.2019 02:44 16,8 C 17,1 C 24,7 C 81 % 67 % 1021,1 hPa 0,0 l/m 1,0 km/h (0 Bft) O-NO 67 13,5 C 16,8 C 0,0 km/h (0 Bft)
25.06.2019 02:42 16,8 C 17,1 C 24,7 C 81 % 67 % 1021,1 hPa 0,0 l/m 1,2 km/h (1 Bft) O-NO 67 13,5 C 16,8 C 0,0 km/h (0 Bft)
25.06.2019 02:40 16,8 C 17,2 C 24,7 C 81 % 67 % 1021,1 hPa 0,0 l/m 1,2 km/h (1 Bft) O-NO 67 13,5 C 16,8 C 2,9 km/h (1 Bft)
25.06.2019 02:38 16,8 C 17,2 C 24,7 C 81 % 67 % 1021,3 hPa 0,0 l/m 0,7 km/h (0 Bft) O-NO 67 13,5 C 16,8 C 3,1 km/h (1 Bft)
25.06.2019 02:36 16,9 C 17,2 C 24,8 C 81 % 67 % 1021,3 hPa 0,0 l/m 0,2 km/h (0 Bft) O-NO 67 13,6 C 16,9 C 2,4 km/h (1 Bft)
25.06.2019 02:34 16,9 C 17,2 C 24,8 C 81 % 67 % 1021,3 hPa 0,0 l/m 0,7 km/h (0 Bft) O-NO 67 13,6 C 16,9 C 0,0 km/h (0 Bft)
25.06.2019 02:32 16,9 C 17,3 C 24,8 C 81 % 67 % 1021,3 hPa 0,0 l/m 1,4 km/h (1 Bft) O-NO 67 13,6 C 16,9 C 2,9 km/h (1 Bft)
25.06.2019 02:30 16,9 C 17,3 C 24,7 C 81 % 67 % 1021,3 hPa 0,0 l/m 1,4 km/h (1 Bft) O-NO 67 13,6 C 16,9 C 0,0 km/h (0 Bft)
25.06.2019 02:28 16,9 C 17,3 C 24,8 C 81 % 67 % 1021,3 hPa 0,0 l/m 1,9 km/h (1 Bft) O-NO 67 13,6 C 16,9 C 0,0 km/h (0 Bft)
25.06.2019 02:26 16,9 C 17,4 C 24,8 C 81 % 67 % 1021,3 hPa 0,0 l/m 2,2 km/h (1 Bft) O-NO 67 13,6 C 16,9 C 0,0 km/h (0 Bft)
25.06.2019 02:24 17,0 C 17,4 C 24,7 C 80 % 67 % 1021,3 hPa 0,0 l/m 2,7 km/h (1 Bft) O-NO 67 13,5 C 17,0 C 3,1 km/h (1 Bft)
25.06.2019 02:22 17,0 C 17,3 C 24,8 C 80 % 67 % 1021,3 hPa 0,0 l/m 2,7 km/h (1 Bft) NO 45 13,5 C 17,0 C 4,1 km/h (1 Bft)
25.06.2019 02:20 16,9 C 17,3 C 24,8 C 81 % 67 % 1021,3 hPa 0,0 l/m 2,2 km/h (1 Bft) O-NO 67 13,6 C 16,9 C 0,0 km/h (0 Bft)
25.06.2019 02:18 16,9 C 17,4 C 24,8 C 81 % 67 % 1021,4 hPa 0,0 l/m 2,2 km/h (1 Bft) NO 45 13,6 C 16,9 C 2,9 km/h (1 Bft)
25.06.2019 02:16 16,9 C 17,4 C 24,8 C 81 % 67 % 1021,4 hPa 0,0 l/m 2,2 km/h (1 Bft) NO 45 13,6 C 16,9 C 3,6 km/h (1 Bft)
25.06.2019 02:14 17,0 C 17,4 C 24,8 C 80 % 67 % 1021,4 hPa 0,0 l/m 1,9 km/h (1 Bft) NO 45 13,5 C 17,0 C 3,1 km/h (1 Bft)
25.06.2019 02:12 17,0 C 17,4 C 24,8 C 80 % 67 % 1021,4 hPa 0,0 l/m 2,2 km/h (1 Bft) NO 45 13,5 C 17,0 C 2,4 km/h (1 Bft)
25.06.2019 02:10 17,0 C 17,4 C 24,8 C 80 % 67 % 1021,4 hPa 0,0 l/m 2,9 km/h (1 Bft) NO 45 13,5 C 17,0 C 0,0 km/h (0 Bft)
25.06.2019 02:08 17,0 C 17,4 C 24,8 C 80 % 67 % 1021,4 hPa 0,0 l/m 3,6 km/h (1 Bft) NO 45 13,5 C 17,0 C 2,7 km/h (1 Bft)
25.06.2019 02:06 17,0 C 17,4 C 24,8 C 80 % 67 % 1021,4 hPa 0,0 l/m 3,6 km/h (1 Bft) NO 45 13,5 C 17,0 C 4,3 km/h (1 Bft)
25.06.2019 02:04 17,0 C 17,5 C 24,8 C 80 % 67 % 1021,4 hPa 0,0 l/m 3,4 km/h (1 Bft) NW 315 13,5 C 17,0 C 2,7 km/h (1 Bft)
25.06.2019 02:02 17,0 C 17,5 C 24,8 C 80 % 67 % 1021,4 hPa 0,0 l/m 3,6 km/h (1 Bft) NO 45 13,5 C 17,0 C 4,6 km/h (1 Bft)
25.06.2019 02:00 17,1 C 17,4 C 24,8 C 80 % 67 % 1021,4 hPa 0,0 l/m 3,4 km/h (1 Bft) NO 45 13,6 C 17,1 C 5,8 km/h (2 Bft)
25.06.2019 01:58 17,1 C 17,4 C 24,8 C 80 % 67 % 1021,1 hPa 0,0 l/m 3,1 km/h (1 Bft) NO 45 13,6 C 17,1 C 6,0 km/h (2 Bft)
25.06.2019 01:56 17,3 C 17,4 C 24,8 C 80 % 67 % 1021,1 hPa 0,0 l/m 3,6 km/h (1 Bft) O-SO 112 13,8 C 17,3 C 0,0 km/h (0 Bft)
25.06.2019 01:54 17,2 C 17,4 C 24,8 C 80 % 67 % 1021,1 hPa 0,0 l/m 4,1 km/h (1 Bft) O-SO 112 13,7 C 17,2 C 4,1 km/h (1 Bft)
25.06.2019 01:52 17,1 C 17,4 C 24,8 C 80 % 67 % 1021,1 hPa 0,0 l/m 3,9 km/h (1 Bft) O-NO 67 13,6 C 17,1 C 3,1 km/h (1 Bft)
25.06.2019 01:50 17,1 C 17,4 C 24,8 C 80 % 67 % 1021,1 hPa 0,0 l/m 3,9 km/h (1 Bft) NO 45 13,6 C 17,1 C 4,8 km/h (1 Bft)
25.06.2019 01:48 17,2 C 17,4 C 24,8 C 80 % 67 % 1021,1 hPa 0,0 l/m 3,9 km/h (1 Bft) NO 45 13,7 C 17,2 C 5,6 km/h (1 Bft)
25.06.2019 01:46 17,2 C 17,4 C 24,8 C 80 % 67 % 1021,1 hPa 0,0 l/m 3,6 km/h (1 Bft) NO 45 13,7 C 17,2 C 5,3 km/h (1 Bft)
25.06.2019 01:44 17,2 C 17,4 C 24,9 C 80 % 67 % 1021,1 hPa 0,0 l/m 3,6 km/h (1 Bft) NO 45 13,7 C 17,2 C 3,9 km/h (1 Bft)
25.06.2019 01:42 17,2 C 17,4 C 24,9 C 80 % 67 % 1021,1 hPa 0,0 l/m 3,9 km/h (1 Bft) NO 45 13,7 C 17,2 C 2,9 km/h (1 Bft)
25.06.2019 01:40 17,2 C 17,5 C 24,9 C 80 % 67 % 1021,1 hPa 0,0 l/m 4,3 km/h (1 Bft) NO 45 13,7 C 17,2 C 3,6 km/h (1 Bft)
25.06.2019 01:38 17,2 C 17,5 C 24,9 C 80 % 67 % 1021,1 hPa 0,0 l/m 4,8 km/h (1 Bft) NO 45 13,7 C 17,2 C 3,6 km/h (1 Bft)
25.06.2019 01:36 17,3 C 17,5 C 24,9 C 80 % 67 % 1021,1 hPa 0,0 l/m 5,1 km/h (1 Bft) NO 45 13,8 C 17,3 C 4,6 km/h (1 Bft)
25.06.2019 01:34 17,3 C 17,5 C 24,9 C 80 % 67 % 1021,1 hPa 0,0 l/m 5,3 km/h (1 Bft) NO 45 13,8 C 17,3 C 6,0 km/h (2 Bft)
25.06.2019 01:32 17,3 C 17,5 C 24,9 C 80 % 67 % 1021,1 hPa 0,0 l/m 5,6 km/h (1 Bft) NO 45 13,8 C 17,3 C 4,3 km/h (1 Bft)
25.06.2019 01:30 17,3 C 17,6 C 24,9 C 80 % 67 % 1021,1 hPa 0,0 l/m 5,6 km/h (1 Bft) NO 45 13,8 C 17,3 C 5,1 km/h (1 Bft)
25.06.2019 01:28 17,3 C 17,6 C 24,9 C 80 % 67 % 1021,1 hPa 0,0 l/m 5,8 km/h (2 Bft) NO 45 13,8 C 17,3 C 6,0 km/h (2 Bft)
25.06.2019 01:26 17,3 C 17,6 C 24,9 C 80 % 67 % 1021,1 hPa 0,0 l/m 5,8 km/h (2 Bft) NO 45 13,8 C 17,3 C 6,0 km/h (2 Bft)
25.06.2019 01:24 17,3 C 17,6 C 24,9 C 80 % 67 % 1021,1 hPa 0,0 l/m 5,6 km/h (1 Bft) NO 45 13,8 C 17,3 C 7,0 km/h (2 Bft)
25.06.2019 01:22 17,4 C 17,6 C 24,9 C 80 % 67 % 1021,1 hPa 0,0 l/m 5,3 km/h (1 Bft) NO 45 13,9 C 17,4 C 6,8 km/h (2 Bft)
25.06.2019 01:20 17,4 C 17,7 C 24,9 C 80 % 67 % 1021,1 hPa 0,0 l/m 5,3 km/h (1 Bft) NO 45 13,9 C 17,4 C 6,3 km/h (2 Bft)
25.06.2019 01:18 17,4 C 17,7 C 24,9 C 80 % 67 % 1021,1 hPa 0,0 l/m 5,3 km/h (1 Bft) NO 45 13,9 C 17,4 C 6,5 km/h (2 Bft)
25.06.2019 01:16 17,4 C 17,7 C 24,9 C 80 % 67 % 1021,1 hPa 0,0 l/m 5,3 km/h (1 Bft) NO 45 13,9 C 17,4 C 4,8 km/h (1 Bft)
25.06.2019 01:14 17,4 C 17,7 C 24,9 C 80 % 67 % 1021,1 hPa 0,0 l/m 5,3 km/h (1 Bft) NO 45 13,9 C 17,4 C 5,3 km/h (1 Bft)
25.06.2019 01:12 17,4 C 17,7 C 24,9 C 80 % 67 % 1021,1 hPa 0,0 l/m 5,6 km/h (1 Bft) O-NO 67 13,9 C 17,4 C 5,1 km/h (1 Bft)
25.06.2019 01:10 17,5 C 17,7 C 24,9 C 80 % 67 % 1021,1 hPa 0,0 l/m 5,8 km/h (2 Bft) NO 45 14,0 C 17,5 C 6,5 km/h (2 Bft)
25.06.2019 01:08 17,5 C 17,8 C 24,9 C 80 % 67 % 1021,1 hPa 0,0 l/m 5,8 km/h (2 Bft) NO 45 14,0 C 17,5 C 6,0 km/h (2 Bft)
25.06.2019 01:06 17,5 C 17,8 C 24,9 C 80 % 67 % 1021,1 hPa 0,0 l/m 6,3 km/h (2 Bft) NO 45 14,0 C 17,5 C 5,3 km/h (1 Bft)
25.06.2019 01:04 17,5 C 17,8 C 24,9 C 80 % 67 % 1021,1 hPa 0,0 l/m 6,5 km/h (2 Bft) NO 45 14,0 C 17,5 C 6,3 km/h (2 Bft)
25.06.2019 01:02 17,6 C 17,8 C 24,9 C 79 % 67 % 1021,1 hPa 0,0 l/m 6,8 km/h (2 Bft) NO 45 13,9 C 17,4 C 6,5 km/h (2 Bft)
25.06.2019 01:00 17,6 C 17,8 C 24,9 C 79 % 67 % 1021,1 hPa 0,0 l/m 6,8 km/h (2 Bft) NO 45 13,9 C 17,4 C 7,2 km/h (2 Bft)
25.06.2019 00:58 17,6 C 17,8 C 24,9 C 79 % 67 % 1021,0 hPa 0,0 l/m 6,8 km/h (2 Bft) NO 45 13,9 C 17,4 C 7,7 km/h (2 Bft)
25.06.2019 00:56 17,6 C 17,8 C 24,9 C 79 % 67 % 1021,0 hPa 0,0 l/m 6,8 km/h (2 Bft) N-NO 22 13,9 C 17,4 C 7,2 km/h (2 Bft)
25.06.2019 00:54 17,6 C 17,8 C 24,9 C 79 % 67 % 1021,0 hPa 0,0 l/m 7,0 km/h (2 Bft) NO 45 13,9 C 17,3 C 8,2 km/h (2 Bft)
25.06.2019 00:52 17,6 C 17,8 C 24,9 C 79 % 67 % 1021,0 hPa 0,0 l/m 6,8 km/h (2 Bft) NO 45 13,9 C 17,4 C 7,5 km/h (2 Bft)
25.06.2019 00:50 17,7 C 17,9 C 24,9 C 79 % 67 % 1021,0 hPa 0,0 l/m 6,5 km/h (2 Bft) NO 45 14,0 C 17,7 C 8,9 km/h (2 Bft)
25.06.2019 00:48 17,7 C 17,9 C 24,9 C 79 % 67 % 1021,0 hPa 0,0 l/m 6,8 km/h (2 Bft) NO 45 14,0 C 17,5 C 7,5 km/h (2 Bft)
25.06.2019 00:46 17,8 C 17,9 C 24,9 C 79 % 67 % 1021,0 hPa 0,0 l/m 6,5 km/h (2 Bft) NO 45 14,1 C 17,8 C 7,7 km/h (2 Bft)
25.06.2019 00:44 17,9 C 18,0 C 24,9 C 79 % 67 % 1021,0 hPa 0,0 l/m 6,3 km/h (2 Bft) NO 45 14,2 C 17,9 C 7,7 km/h (2 Bft)
25.06.2019 00:42 17,9 C 18,0 C 25,0 C 79 % 67 % 1021,0 hPa 0,0 l/m 6,0 km/h (2 Bft) NO 45 14,2 C 17,9 C 6,3 km/h (2 Bft)
25.06.2019 00:40 17,9 C 18,0 C 25,0 C 79 % 67 % 1021,0 hPa 0,0 l/m 6,0 km/h (2 Bft) NO 45 14,2 C 17,9 C 6,5 km/h (2 Bft)
25.06.2019 00:38 18,0 C 18,0 C 25,0 C 79 % 67 % 1021,0 hPa 0,0 l/m 5,6 km/h (1 Bft) NO 45 14,3 C 18,0 C 6,8 km/h (2 Bft)
25.06.2019 00:36 18,0 C 18,0 C 25,0 C 79 % 67 % 1021,0 hPa 0,0 l/m 5,3 km/h (1 Bft) NO 45 14,3 C 18,0 C 7,0 km/h (2 Bft)
25.06.2019 00:34 18,0 C 18,1 C 25,0 C 79 % 67 % 1021,0 hPa 0,0 l/m 4,8 km/h (1 Bft) NO 45 14,3 C 18,0 C 6,8 km/h (2 Bft)
25.06.2019 00:32 18,0 C 18,1 C 25,0 C 78 % 67 % 1021,0 hPa 0,0 l/m 5,1 km/h (1 Bft) NO 45 14,1 C 18,0 C 5,8 km/h (2 Bft)
25.06.2019 00:30 18,0 C 18,1 C 25,0 C 78 % 67 % 1021,0 hPa 0,0 l/m 4,8 km/h (1 Bft) NO 45 14,1 C 18,0 C 5,6 km/h (1 Bft)
25.06.2019 00:28 18,0 C 18,1 C 25,0 C 78 % 67 % 1021,0 hPa 0,0 l/m 4,8 km/h (1 Bft) NO 45 14,1 C 18,0 C 5,6 km/h (1 Bft)
25.06.2019 00:26 18,0 C 18,1 C 25,0 C 78 % 67 % 1021,0 hPa 0,0 l/m 4,8 km/h (1 Bft) NO 45 14,1 C 18,0 C 5,3 km/h (1 Bft)
25.06.2019 00:24 18,0 C 18,1 C 25,0 C 78 % 67 % 1021,0 hPa 0,0 l/m 5,1 km/h (1 Bft) NO 45 14,1 C 18,0 C 4,6 km/h (1 Bft)
25.06.2019 00:22 18,0 C 18,1 C 25,0 C 78 % 67 % 1021,0 hPa 0,0 l/m 5,3 km/h (1 Bft) N-NO 22 14,1 C 18,0 C 6,8 km/h (2 Bft)
25.06.2019 00:20 18,1 C 18,1 C 25,0 C 78 % 67 % 1021,0 hPa 0,0 l/m 5,3 km/h (1 Bft) NO 45 14,2 C 18,1 C 4,6 km/h (1 Bft)
25.06.2019 00:18 18,1 C 18,1 C 25,0 C 78 % 67 % 1021,1 hPa 0,0 l/m 6,0 km/h (2 Bft) NO 45 14,2 C 18,1 C 4,6 km/h (1 Bft)
25.06.2019 00:16 18,1 C 18,2 C 25,1 C 78 % 67 % 1021,1 hPa 0,0 l/m 6,3 km/h (2 Bft) NO 45 14,2 C 18,1 C 6,0 km/h (2 Bft)
25.06.2019 00:14 18,2 C 18,2 C 25,1 C 78 % 67 % 1021,1 hPa 0,0 l/m 6,5 km/h (2 Bft) O-NO 67 14,3 C 18,2 C 6,3 km/h (2 Bft)
25.06.2019 00:12 18,3 C 18,2 C 25,1 C 78 % 67 % 1021,1 hPa 0,0 l/m 7,0 km/h (2 Bft) NO 45 14,4 C 18,0 C 6,3 km/h (2 Bft)
25.06.2019 00:10 18,3 C 18,2 C 25,1 C 78 % 67 % 1021,1 hPa 0,0 l/m 7,2 km/h (2 Bft) NO 45 14,4 C 17,9 C 7,0 km/h (2 Bft)
25.06.2019 00:08 18,3 C 18,3 C 25,1 C 78 % 67 % 1021,1 hPa 0,0 l/m 7,5 km/h (2 Bft) NO 45 14,4 C 17,8 C 7,7 km/h (2 Bft)
25.06.2019 00:06 18,3 C 18,3 C 25,1 C 78 % 67 % 1021,1 hPa 0,0 l/m 7,2 km/h (2 Bft) NO 45 14,4 C 17,9 C 6,3 km/h (2 Bft)
25.06.2019 00:04 18,4 C 18,4 C 25,1 C 78 % 67 % 1021,1 hPa 0,0 l/m 6,3 km/h (2 Bft) NO 45 14,5 C 18,4 C 8,7 km/h (2 Bft)
25.06.2019 00:02 18,4 C 18,4 C 25,1 C 78 % 67 % 1021,1 hPa 0,0 l/m 6,3 km/h (2 Bft) NO 45 14,5 C 18,4 C 8,7 km/h (2 Bft)
25.06.2019 00:00 18,5 C 18,4 C 25,1 C 78 % 67 % 1021,1 hPa 0,0 l/m 6,0 km/h (2 Bft) NO 45 14,6 C 18,5 C 8,0 km/h (2 Bft)
_ Min-Zeit 05:06 05:14 04:36 00:00 04:50 05:40 - 05:32 - - 04:46 05:06 01:56
Minimum _ 15,9 C 16,3 C 24,6 C 78 % 66 % 1020,8 hPa - 0,0 km/h (0 Bft) - - 12,9 C 15,9 C 0,0 km/h (0 Bft)
_ Max-Zeit 00:00 00:00 00:00 05:06 00:00 02:00 00:00 00:08 - - 00:00 00:00 00:50
Maximum _ 18,5 C 18,4 C 25,1 C 83 % 67 % 1021,4 hPa 0,0 l/m 7,5 km/h
NO (2 Bft)
- - 14,6 C 18,5 C 8,9 km/h
NO (2 Bft)
Durchschnitt _ 16,8 C 17,2 C 24,8 C 81 % 67 % 1021,1 hPa #0,0 l/m 3,4 km/h (1 Bft) NO - 13,5 C 16,8 C 3,7 km/h (1 Bft)